KB3PHD Weather Reports


time (UTC)temp
C
wind
direction
speed
KPH
gust
KPH
rain 1hr
cm
rain 24hr
cm
rain mn
cm
humidity
%
barometer
mb
20260507120519 12 314 3.2 8.0 0.00 0.61 0.10 82 1012.8
20260507115519 12 331 6.4 8.0 0.00 0.61 0.10 83 1012.6
20260507114519 12 337 6.4 9.7 0.00 0.61 0.10 84 1012.6
20260507113519 12 335 4.8 8.0 0.00 0.64 0.10 87 1012.6
20260507112521 12 357 3.2 6.4 0.00 0.64 0.10 88 1012.5
20260507111540 12 358 6.4 9.7 0.00 0.64 0.10 87 1012.5
20260507110520 12 353 1.6 4.8 0.00 0.64 0.10 87 1012.5
20260507105520 12 356 4.8 8.0 0.00 0.64 0.10 86 1012.4
20260507104520 12 356 4.8 9.7 0.00 0.64 0.10 86 1012.2
20260507103520 12 351 6.4 11.3 0.00 0.64 0.10 87 1012.2
20260507102520 12 346 3.2 6.4 0.00 0.64 0.10 88 1012.1
20260507101521 12 353 6.4 9.7 0.00 0.64 0.10 89 1012.0
20260507100520 12 358 3.2 8.0 0.00 0.64 0.10 90 1012.0
20260507095520 12 4 4.8 8.0 0.00 0.64 0.10 90 1011.9
20260507094541 12 350 3.2 4.8 0.00 0.64 0.10 90 1011.9
20260507093520 12 14 1.6 4.8 0.00 0.64 0.10 90 1011.9
20260507092520 12 10 4.8 8.0 0.00 0.64 0.10 90 1011.6
20260507091521 12 10 6.4 9.7 0.00 0.64 0.10 90 1011.9
20260507090521 12 356 3.2 6.4 0.00 0.64 0.10 90 1011.9
20260507085521 12 11 1.6 6.4 0.00 0.64 0.10 90 1011.8
20260507084521 12 351 1.6 4.8 0.00 0.64 0.10 89 1011.6
20260507083521 12 4 6.4 9.7 0.00 0.64 0.10 89 1011.7
20260507082542 12 1 6.4 8.0 0.00 0.64 0.10 89 1011.6
20260507081523 13 353 6.4 9.7 0.00 0.64 0.10 90 1011.3
20260507080523 13 10 8.0 12.9 0.00 0.64 0.10 91 1011.1
20260507075521 13 19 6.4 12.9 0.00 0.64 0.10 92 1010.9
20260507074516 13 11 8.0 14.5 0.00 0.64 0.10 92 1011.0
20260507073522 13 340 6.4 11.3 0.00 0.64 0.10 91 1010.7
20260507072522 13 334 8.0 16.1 0.00 0.64 0.10 92 1010.8
20260507071522 13 335 4.8 9.7 0.00 0.64 0.10 93 1010.8
20260507070523 13 343 6.4 9.7 0.00 0.64 0.10 94 1010.6
20260507065517 13 337 9.7 16.1 0.00 0.64 0.10 95 1010.7
20260507064537 13 332 6.4 9.7 0.00 0.64 0.10 95 1010.8
20260507063518 13 330 8.0 11.3 0.00 0.64 0.10 95 1010.8
20260507062517 13 349 6.4 11.3 0.00 0.64 0.10 95 1010.6
20260507061517 13 357 8.0 14.5 0.00 0.64 0.10 94 1010.5
20260507060518 13 343 9.7 17.7 0.00 0.64 0.10 94 1010.8
20260507055518 13 344 8.0 14.5 0.03 0.64 0.10 94 1010.6
20260507054517 14 334 8.0 12.9 0.03 0.64 0.10 93 1010.7
20260507053519 14 316 11.3 19.3 0.05 0.64 0.10 91 1010.9
20260507052518 15 327 9.7 12.9 0.08 0.64 0.10 90 1010.3
20260507051518 15 328 8.0 12.9 0.10 0.64 0.10 90 1010.6
20260507050518 15 303 9.7 12.9 0.10 0.64 0.10 89 1011.1
20260507045518 15 306 8.0 11.3 0.08 0.58 0.08 86 1010.8
20260507044518 16 309 11.3 17.7 0.08 0.58 0.08 82 1010.6
20260507043538 16 305 9.7 17.7 0.05 0.56 0.05 78 1010.9
20260507042518 17 314 9.7 14.5 0.03 0.53 0.03 73 1010.9
20260507041520 17 320 6.4 12.9 0.00 0.51 0.00 75 1010.6
20260507040519 17 331 8.0 12.9 0.00 0.51 0.00 75 1010.6
20260507035519 17 337 6.4 9.7 0.00 0.51 0.51 78 1010.2
20260507034539 17 324 12.9 22.5 0.00 0.51 0.51 80 1010.4
20260507033516 18 319 8.0 14.5 0.00 0.51 0.51 80 1010.4
20260507032517 18 307 6.4 12.9 0.00 0.51 0.51 79 1010.4
20260507031517 18 319 6.4 12.9 0.00 0.51 0.51 78 1009.9
20260507030540 18 321 8.0 12.9 0.00 0.51 0.51 76 1009.8
20260507025520 18 311 9.7 16.1 0.00 0.51 0.51 75 1009.9
20260507024519 18 313 12.9 17.7 0.00 0.51 0.51 76 1009.9
20260507023517 19 312 12.9 19.3 0.00 0.53 0.51 77 1009.6
20260507022518 19 305 9.7 16.1 0.00 0.53 0.51 77 1009.6
20260507021517 20 316 6.4 12.9 0.00 0.53 0.51 77 1009.4
20260507020518 20 306 6.4 11.3 0.00 0.53 0.51 78 1009.3
20260507015518 20 307 9.7 17.7 0.00 0.53 0.51 78 1009.3
20260507014518 20 178 0.0 3.2 0.00 0.53 0.51 83 1009.3
20260507013539 20 174 1.6 4.8 0.00 0.53 0.51 82 1009.4
20260507012519 20 175 1.6 3.2 0.00 0.53 0.51 83 1009.5
20260507011519 20 141 1.6 3.2 0.00 0.53 0.51 82 1009.4
20260507010539 20 178 3.2 6.4 0.00 0.53 0.51 82 1009.7
20260507005518 20 175 6.4 8.0 0.00 0.53 0.51 81 1009.4
20260507004519 20 175 3.2 6.4 0.00 0.53 0.51 82 1009.3
20260507003519 20 181 1.6 4.8 0.00 0.53 0.51 82 1009.2
20260507002516 20 177 1.6 4.8 0.00 0.53 0.51 82 1009.0
20260507001520 20 168 1.6 3.2 0.00 0.53 0.51 82 1009.0
20260507000519 20 175 0.0 3.2 0.00 0.53 0.51 82 1009.2
20260506235519 20 164 1.6 4.8 0.00 0.53 0.51 81 1009.0
20260506234519 20 172 1.6 4.8 0.00 0.53 0.51 81 1008.9
20260506233520 20 169 3.2 9.7 0.00 0.53 0.51 81 1008.8
20260506232516 20 178 6.4 9.7 0.00 0.53 0.51 81 1008.7
20260506231520 20 176 8.0 11.3 0.00 0.53 0.51 80 1008.5
20260506230520 20 175 8.0 14.5 0.00 0.53 0.51 80 1008.4
20260506225520 20 172 6.4 9.7 0.00 0.53 0.51 80 1008.5
20260506224520 20 182 8.0 16.1 0.00 0.53 0.51 80 1008.6
20260506223519 20 179 11.3 20.9 0.00 0.53 0.51 80 1008.5
20260506222518 20 174 9.7 19.3 0.00 0.53 0.51 79 1008.4
20260506221519 20 178 6.4 16.1 0.00 0.53 0.51 80 1008.4
20260506220518 20 177 12.9 22.5 0.00 0.53 0.51 80 1008.4
20260506215519 20 175 11.3 19.3 0.00 0.53 0.51 80 1008.3
20260506214518 20 177 12.9 22.5 0.00 0.53 0.51 80 1008.4
20260506213518 20 179 12.9 27.4 0.00 0.53 0.51 79 1008.3
20260506212519 20 179 12.9 24.1 0.00 0.53 0.51 80 1008.2
20260506211539 20 178 12.9 22.5 0.00 0.53 0.51 80 1008.2
20260506210518 20 177 12.9 27.4 0.00 0.53 0.51 80 1008.0
20260506205519 20 180 9.7 20.9 0.00 0.56 0.51 80 1008.1
20260506204519 20 202 6.4 19.3 0.00 0.58 0.51 79 1007.9
20260506203519 20 180 11.3 20.9 0.00 0.58 0.51 81 1007.9
20260506202539 20 182 9.7 24.1 0.00 0.58 0.51 80 1008.0
20260506201521 19 180 8.0 20.9 0.00 0.61 0.51 81 1008.0
20260506200519 19 181 11.3 24.1 0.00 0.74 0.51 81 1008.0
20260506195520 19 193 4.8 27.4 0.00 0.81 0.51 81 1008.1
20260506194520 19 187 8.0 20.9 0.00 0.84 0.51 81 1008.1
20260506193520 19 197 8.0 20.9 0.00 0.89 0.51 81 1008.2
20260506192541 19 175 6.4 20.9 0.00 0.91 0.51 81 1008.3
20260506191520 19 192 6.4 22.5 0.00 1.02 0.51 81 1008.3
20260506190517 19 176 11.3 20.9 0.00 1.02 0.51 82 1008.4
20260506185539 18 199 6.4 20.9 0.00 1.17 0.51 82 1008.6
20260506184517 18 174 11.3 25.7 0.00 1.19 0.51 82 1008.5
20260506183518 18 170 9.7 32.2 0.00 1.22 0.51 82 1008.7
20260506182518 18 178 11.3 24.1 0.00 1.27 0.51 82 1008.8
20260506181521 18 171 16.1 40.2 0.00 1.32 0.51 83 1008.8
20260506180518 18 179 12.9 25.7 0.00 1.37 0.51 83 1008.9
20260506175518 18 175 9.7 27.4 0.00 1.40 0.51 84 1009.0
20260506174518 18 175 9.7 25.7 0.00 1.40 0.51 84 1009.1
20260506173519 18 180 9.7 20.9 0.00 1.40 0.51 85 1009.0
20260506172519 18 177 9.7 22.5 0.00 1.40 0.51 85 1009.1
20260506171623 17 180 11.3 32.2 0.00 1.40 0.51 85 1009.1
20260506170519 17 177 12.9 33.8 0.00 1.40 0.51 86 1009.2
20260506165540 17 187 12.9 33.8 0.00 1.40 0.51 87 1009.2
20260506164519 17 186 11.3 27.4 0.15 1.40 0.51 89 1009.3
20260506163519 17 193 12.9 33.8 0.15 1.40 0.51 90 1009.4
20260506162539 17 185 12.9 27.4 0.15 1.40 0.51 91 1009.4
20260506161519 17 183 11.3 25.7 0.20 1.40 0.51 93 1009.4
20260506160517 16 180 9.7 24.1 0.20 1.40 0.51 94 1009.5
20260506155540 16 180 17.7 32.2 0.23 1.40 0.51 95 1009.5
20260506154540 16 178 14.5 25.7 0.08 1.24 0.36 95 1009.7
20260506153520 16 181 14.5 25.7 0.08 1.24 0.36 95 1009.8
20260506152520 16 175 16.1 27.4 0.10 1.24 0.36 96 1009.5
20260506151557 16 179 12.9 22.5 0.10 1.22 0.30 96 1010.1
20260506150518 16 178 9.7 20.9 0.15 1.19 0.30 95 1010.3
20260506145557 16 175 14.5 25.7 0.18 1.19 0.28 95 1010.3
20260506144521 16 174 14.5 22.5 0.20 1.19 0.28 95 1010.4
20260506143522 16 174 14.5 25.7 0.23 1.17 0.28 96 1010.4
20260506142522 16 177 12.9 20.9 0.23 1.14 0.25 94 1010.4
20260506141518 16 179 14.5 20.9 0.18 1.12 0.20 93 1010.4
20260506140518 16 179 14.5 20.9 0.13 1.07 0.15 91 1010.4
20260506135518 16 181 11.3 19.3 0.10 1.02 0.10 89 1010.5
20260506134519 17 181 11.3 20.9 0.08 0.99 0.08 88 1010.6
20260506133519 17 180 8.0 16.1 0.03 0.94 0.05 86 1010.8
20260506132519 17 187 6.4 20.9 0.03 0.94 0.03 83 1010.9
20260506131519 17 180 11.3 24.1 0.03 0.91 0.03 83 1010.5
20260506130519 17 183 12.9 22.5 0.03 0.91 0.03 83 1010.3
20260506125519 17 179 11.3 19.3 0.03 0.91 0.03 83 1010.1
20260506124539 17 178 8.0 16.1 0.03 0.91 0.03 82 1010.0
20260506123519 18 183 14.5 30.6 0.00 0.91 0.03 80 1010.2
20260506122601 18 178 9.7 24.1 0.00 0.91 0.00 77 1010.3
20260506121541 18 166 9.7 27.4 0.00 0.91 0.00 76 1010.4